Location: Les Olli�res
(44.8045°N, 4.6286°E)
Time: 02:35:33
(UTC+00:00)

Daily predictions for brighter satellites

Satellite Brightness Start Highest point End
(mag) Time Altitude Azimuth Time Altitude Azimuth Time Altitude Azimuth
Cosmos 2263 Rocket 4.4 03:01:26 20° ENE 03:01:26 20° ENE 03:03:28 10° NE
CZ-4C R/B 4.4 03:25:49 15° SE 03:27:25 18° ESE 03:30:55 10° ENE
ATLAS 3B R/B 3.9 03:30:35 31° NNE 03:31:56 33° NE 03:38:16 10° E
Cosmos 1943 4.4 03:36:00 38° ESE 03:36:00 38° ESE 03:39:38 10° SE
Lacrosse 4 Rocket 4.0 03:38:11 19° ESE 03:38:11 19° ESE 03:39:42 10° ESE
ALOS 3.8 03:50:29 10° NNE 03:53:16 31° NE 03:53:16 31° NE
NOSS 3-2 (C) 3.9 04:00:07 72° WSW 04:00:27 73° WSW 04:09:00 10° SSE
NOSS 3-4 (A) 3.4 04:00:50 77° ESE 04:00:50 77° ESE 04:06:59 10° NE
NOSS 3-4 (C) 3.4 04:00:54 76° ESE 04:00:54 76° ESE 04:07:06 10° NE
CENTAUR R/B 3.1 04:01:35 67° W 04:02:28 72° WSW 04:11:18 10° SSE
Milstar 3 Cent rocket 4.4 04:00:16 21° SSW 04:02:44 25° SSE 04:11:29 10° ESE
Cosmos 158 Rocket 4.5 04:10:38 51° NE 04:11:08 53° ENE 04:15:59 10° SE
SL-4 R/B 4.1 04:15:02 20° NE 04:15:02 20° NE 04:16:27 10° NE
Cosmos 1151 Rocket 3.9 04:17:01 45° SE 04:17:01 45° SE 04:20:15 10° SSE
Cosmos 1782 4.3 04:16:34 32° NE 04:17:25 35° ENE 04:21:08 10° SE
ATLAS 2AS CENTAUR R/B 3.0 04:15:30 28° SSW 04:20:15 83° SE 04:28:09 10° NE
ERS-2 4.2 04:17:56 10° SSE 04:19:17 21° SSE 04:19:17 21° SSE
Cosmos 1680 Rocket 4.2 04:20:02 31° N 04:22:23 54° ENE 04:27:34 10° SE
ATLAS 5 CENTAUR R/B 4.2 04:31:19 14° NNE 04:31:19 14° NNE 04:31:45 10° NNE
Atlas Centaur 2 4.2 04:26:41 17° SSW 04:28:51 20° S 04:32:55 10° SE
RESURS DK-1 3.8 04:27:10 10° S 04:31:00 38° ESE 04:34:53 10° NE
Lacrosse 5 1.7 04:32:03 78° SW 04:32:23 89° NW 04:37:29 10° NE
ATLAS CENTAUR R/B 2.7 04:32:06 29° NNE 04:32:33 30° NE 04:36:02 10° ESE
ADEOS 3.4 04:29:36 10° NNE 04:34:52 89° WNW 04:40:05 10° SSW
Cosmos 1328 Rocket 3.5 04:35:39 72° N 04:36:05 84° E 04:40:30 10° S
Cosmos 2112 Rocket 4.3 04:38:53 24° N 04:42:11 68° ENE 04:47:30 10° SSE
Cosmos 2263 Rocket 2.8 04:43:11 39° NNW 04:43:11 39° NNW 04:47:40 10° NNE
Gbstr 26 Del rocket 2.8 04:43:34 67° NE 04:43:34 67° NE 04:47:14 10° ESE
SJ 16-02 2.0 04:45:52 42° N 04:45:52 42° N 04:49:00 10° NNE
Meteor 1-4 Rocket 4.3 04:46:47 22° S 04:46:47 22° S 04:48:08 10° S
Cosmos 1898 Rocket 3.8 04:46:49 10° S 04:52:06 71° ESE 04:57:25 10° NNE
Meteor 1-26 Rocket 4.1 04:48:59 16° NNW 04:53:43 68° W 04:59:15 10° S
FALCON 9 DEB 3.4 04:56:35 53° NE 04:56:35 53° NE 04:59:10 10° NE
FALCON 9 DEB 3.5 04:56:45 51° NE 04:56:45 51° NE 04:59:18 10° NE
Cosmos 1743 Rocket 4.3 04:55:20 10° S 04:59:40 55° E 05:04:04 10° NNE
FENGYUN 3A 3.8 04:54:28 10° N 04:59:41 49° WNW 05:04:51 10° SW
Cosmos 1408 Rocket 3.4 04:57:12 10° SSW 05:01:38 74° W 05:06:07 10° N
Cosmos 2181 Rocket 4.0 04:58:47 10° NNW 05:04:51 57° W 05:10:49 10° SSW
COSMO-SKYMED 1 2.4 05:00:49 10° S 05:05:08 72° WSW 05:07:59 21° NNW
USA 307 4.4 05:05:08 22° NNW 05:06:04 24° N 05:09:38 10° ENE
Cosmos 1709 Rocket 4.4 05:00:30 10° SW 05:06:27 40° WNW 05:12:26 10° N
Cosmos 1937 Rocket 3.7 05:04:04 10° S 05:09:10 72° ESE 05:14:22 10° NNE
USA 308 4.4 05:11:14 21° NNW 05:12:29 25° N 05:16:03 10° ENE
Meteor 2-3 Rocket 4.0 05:08:15 10° SW 05:13:43 45° WNW 05:19:17 10° N
Lacrosse 4 Rocket 2.5 05:14:32 28° WSW 05:14:32 28° WSW 05:18:01 10° S
CZ-4C R/B 2.0 05:11:05 17° SW 05:14:59 70° NW 05:20:56 10° NE
Cosmos 2154 Rocket 4.4 05:09:20 10° S 05:15:28 65° E 05:21:40 10° NNE
MOS 1 Rocket 3.9 05:10:49 10° SSE 05:15:33 62° ENE 05:20:36 10° N
Cosmos 1943 4.3 05:17:53 23° WSW 05:17:53 23° WSW 05:22:01 10° SSW
Cosmos 1689 Rocket 1.9 05:15:21 10° S 05:18:11 58° W 05:18:12 58° W
CZ-4B R/B 3.0 05:13:52 10° N 05:18:22 70° WNW 05:22:43 10° SSW
FALCON 9 DEB 3.1 05:18:33 49° NW 05:18:50 51° NNW 05:22:00 10° NE
Meteor 1-10 Rocket 4.4 05:15:42 10° N 05:21:16 74° ENE 05:26:53 10° SSE
SAR-Lupe-4 4.0 05:18:39 10° S 05:22:01 39° W 05:22:38 36° WNW
Aureole 2 Rocket 2.8 05:20:44 10° S 05:23:10 44° ESE 05:25:38 10° NNE
ATLAS 3B R/B 2.7 05:17:51 18° NW 05:23:10 72° WSW 05:30:22 10° SSE
Cosmos 1862 3.3 05:22:21 10° S 05:26:24 89° W 05:30:29 10° N
Genesis I 3.1 05:24:54 17° SW 05:27:44 59° NW 05:31:34 10° NNE
YAOGAN 6 3.5 05:25:38 10° NNE 05:29:03 49° E 05:32:25 10° S
deb Chang Zheng 4 4.2 05:28:09 10° N 05:32:01 32° WNW 05:35:53 10° SW
ALOS 3.4 05:28:29 10° NNW 05:31:45 22° WNW 05:31:45 22° WNW
Cosmos 858 Rocket 4.4 05:28:17 10° SSW 05:33:28 73° WNW 05:38:44 10° NNE
Cosmos 2327 Rocket 4.4 05:28:46 10° S 05:34:52 88° W 05:40:59 10° N
Cosmos 990 Rocket 4.2 05:29:52 10° SW 05:34:53 45° WNW 05:39:57 10° N
Cosmos 2074 Rocket 4.0 05:30:12 10° SSW 05:36:18 59° WNW 05:42:26 10° N
PSLV R/B 3.7 05:34:02 10° NNE 05:37:55 86° ESE 05:41:41 10° SSW
ASTRO F (AKARI) 4.1 05:36:47 10° N 05:39:51 64° WNW 05:42:58 10° SSW
USA 305 4.3 05:38:55 16° NW 05:41:33 28° NNE 05:45:17 10° ENE
BREEZE M DEB (TANK) 3.2 05:33:08 10° SW 05:41:38 63° SSE 05:44:31 10° ENE
Meteor 1-31 Rocket 4.4 05:38:56 10° NNW 05:40:29 17° NW 05:40:29 17° NW
Cosmos 405 Rocket 2.5 05:38:35 10° SSW 05:42:15 64° WNW 05:45:59 10° N
SL-24 DEB 4.5 05:37:50 10° SSE 05:42:35 77° E 05:47:23 10° N
EO 1 Delta rocket 4.0 05:41:25 10° S 05:46:26 56° W 05:50:59 10° NNW
Cosmos 1812 2.8 05:43:55 10° NNW 05:47:41 54° W 05:51:25 10° S
Cosmos 1295 Rocket 4.4 05:41:44 10° S 05:47:49 89° W 05:53:57 10° N
USA 306 4.3 05:47:01 14° NW 05:50:03 29° NNE 05:53:50 10° ENE
Cosmos 2228 Rocket 3.1 05:45:53 10° NNW 05:50:13 56° W 05:54:31 10° S
Cosmos 1515 Rocket 4.5 05:46:49 10° NNW 05:50:36 28° W 05:54:23 10° SSW
CENTAUR R/B 4.5 05:48:50 14° WNW 05:52:13 18° WSW 05:57:34 10° SW
NOSS 3-4 (A) 4.4 05:48:19 15° W 05:52:16 28° NNW 05:57:46 10° NNE
NOSS 3-4 (C) 4.4 05:48:24 15° W 05:52:24 28° NNW 05:57:54 10° NNE
SL-4 R/B 3.0 05:50:37 15° NW 05:53:09 30° N 05:56:25 10° ENE
Cosmos 1782 4.3 05:52:14 16° WNW 05:53:27 18° W 05:56:14 10° SW
Cosmos 2184 Rocket 4.3 05:47:53 10° SSW 05:53:54 46° WNW 06:00:01 10° N
Cosmos 1356 4.2 05:54:36 10° S 05:57:56 56° E 06:01:18 10° NNE
FALCON 9 DEB 4.0 05:56:58 16° WNW 05:58:51 28° NNW 06:01:42 10° NE
USA 234 3.6 05:52:18 10° NE 05:58:51 72° SE 06:05:23 10° SW
Spot 2 4.5 05:55:09 10° N 06:00:16 66° WNW 06:05:16 10° SSW
Cosmos 1844 Rocket 3.0 05:55:13 10° SW 06:00:36 45° WNW 06:06:03 10° NNE
EXPRESS MD2 4.2 06:03:36 12° WNW 06:07:15 75° NNE 06:15:27 10° ESE
Cosmos 1707 Rocket 3.6 06:02:55 10° N 06:07:17 83° E 06:11:36 10° S
COSMOS 2455 2.8 06:02:40 10° SW 06:08:42 79° WNW 06:14:46 10° NNE
RESURS DK-1 3.5 06:05:48 10° WSW 06:09:10 23° NW 06:12:32 10° N
MOS 1-B 4.3 06:03:23 10° NNE 06:09:14 78° WNW 06:15:01 10° SSW
BREEZE-M (TANK) 3.9 06:02:47 10° SW 06:10:18 47° SSE 06:12:58 10° ENE
ATLAS CENTAUR R/B 2.3 06:08:18 11° WNW 06:11:20 27° WSW 06:14:43 10° S
BREEZE-M DEB 3.9 06:02:57 10° WNW 06:11:45 50° SW 06:14:44 10° SSE
ATLAS 2AS CENTAUR R/B 3.7 06:05:01 10° W 06:12:06 34° NNW 06:19:02 10° NNE
NOAA 6 4.0 06:07:16 10° N 06:12:20 64° WNW 06:17:22 10° SSW
Cosmos 1844 4.0 06:09:16 10° SW 06:14:32 43° WNW 06:19:51 10° NNE
H-2A R/B 3.7 06:11:31 10° N 06:14:51 27° WNW 06:18:09 10° SW
Lacrosse 5 2.9 06:11:33 10° W 06:15:56 28° NNW 06:20:19 10° NE
Atlas Centaur 2 4.2 06:13:25 10° SW 06:16:55 16° SSW 06:20:00 10° SSE
CZ-4B DEB 4.3 06:12:07 10° N 06:17:29 58° WNW 06:22:49 10° SSW
Cosmos 1437 Rocket 3.2 06:14:16 10° NNW 06:17:49 39° W 06:21:20 10° SSW
Cosmos 372 Rocket 4.0 06:12:54 10° SW 06:17:55 57° WNW 06:22:57 10° NNE
Okean O Rocket 1.6 06:16:37 10° NNE 06:21:06 85° WNW 06:25:33 10° SSW
Geosat 4.4 06:16:27 10° SE 06:21:26 68° ENE 06:26:26 10° NNW
Cosmos 1242 Rocket 3.7 06:19:19 10° N 06:22:52 47° ENE 06:26:24 10° SSE
USA 81 4.0 06:18:38 10° S 06:23:53 76° W 06:29:11 10° N
PAYLOAD B 4.2 06:18:29 10° N 06:23:56 62° WNW 06:29:20 10° SSW
SMAP 3.0 06:20:09 10° N 06:24:48 70° WNW 06:29:25 10° SSW
